Regional Weather Roundup
Issued by NWS Newport/Morehead, NC

Current Version | Previous Version | Graphics & Text | Print | Product List | Glossary On
Versions: 1 2 3 4 5 6 7 8 9 10 11 12 13 14 15 16 17 18 19 20 21 22 23 24 25 26 27 28 29 30 31 32 33 34 35 36 37 38 39 40 41 42 43 44 45 46 47 48 49 50
000 ASUS42 KMHX 250122 RWRMHX WEATHER ROUNDUP FOR EASTERN NORTH CAROLINA NATIONAL WEATHER SERVICE NEWPORT/MOREHEAD CITY NC 900 PM EDT FRI OCT 24 2014 NOTE: "FAIR" INDICATES FEW OR NO CLOUDS BELOW 12,000 FEET WITH NO SIGNIFICANT WEATHER AND/OR OBSTRUCTIONS TO VISIBILITY NCZ015>017-031-032-045>047-102-103-250200- NORTH COAST CITY SKY/WX TMP DP RH WIND PRES REMARKS EDENTON CLEAR 53 49 87 CALM 29.97R ELIZABETH CITY CLEAR 56 46 69 W5 29.95R KITTY HAWK CLEAR 60 55 83 CALM 29.93S MANTEO CLEAR 60 53 78 W3 29.95S $$ NCZ045>047-081-094-103-104-250200- CENTRAL COAST CITY SKY/WX TMP DP RH WIND PRES REMARKS FRISCO CLEAR 58 55 90 NW3 29.96R SWANQUARTER N/A 57 N/A N/A NW2 29.94R $$ NCZ095-097-098-100-101-250200- SOUTHERN COAST CITY SKY/WX TMP DP RH WIND PRES REMARKS BEAUFORT CLEAR 60 52 74 W5 29.98R CEDAR ISLAND N/A 61 N/A N/A W6 30.00S JACKSONVILLE CLEAR 52 50 93 CALM 29.98S PINEY ISLAND CLEAR 64 53 67 W8 29.97R WILMINGTON CLEAR 53 51 93 CALM 29.99S $$ NCZ011>013-027>030-043-044-078>080-089-090>093-098-250200- COASTAL PLAIN CITY SKY/WX TMP DP RH WIND PRES REMARKS AHOSKIE CLEAR 48 47 95 CALM 29.97S CLINTON CLEAR 52 51 98 CALM 29.99R ELIZABETHTOWN PTCLDY 55 50 83 CALM 29.99S GOLDSBORO MOCLDY 56 55 94 CALM 29.96S GREENVILLE PTCLDY 54 52 94 CALM 29.99S FOG HAVELOCK CLEAR 56 51 84 CALM 29.98S KENANSVILLE CLEAR 49 48 95 CALM 29.99S KINSTON PTCLDY 50 50 100 CALM 29.98S NEW BERN CLEAR 56 50 80 CALM 29.99R RICHLANDS CLEAR 50 46 87 CALM 29.99S ROCKY MOUNT CLEAR 51 48 89 CALM 29.97S WASHINGTON PTCLDY 52 49 91 CALM 29.98S WHITEVILLE MOCLDY 55 52 89 CALM 29.98S $$ AMZ130-135-150-152-154-156-158-170-250-252-270-ANZ085-086-088-633-658-670-250200- MARINE OBSERVATIONS STATION/POSITION TIME TEMP WIND PRES WAVE SWELL AIR SEA DIR/SP/G HT/PER HT/PER (UTC) (F) (DEG/KT/KT) (MB) (FT/S) (FT/S) CHESAPEAKE LIGHT 0100 65 310/ 18/ 19 1014.3 64 E VA BEACH 0100 66 66 310/ 16/ 17 1012.4 4/ 9 3/ 9 DUCK 0100 62 66 290/ 7/ 8 1013.0 2 E DUCK 0100 N/A 3/10 2/11 10 NE DUCK 0100 67 N/A 4/10 2/11 OREGON INLET 0100 60 64 280/ 4/ 6 1013.9 13E OREGON INLT 0100 69 N/A 5/10 2/11 HATTERAS CG 0100 65 65 310/ 9/ 10 1014.8 DIAMOND BUOY 0100 66 300/ 12/ 16 1014.2 4/10 3/10 17 S OCRACOKE 0000 VRB 12/ 17 1014.2 CAPE LOOKOUT 0100 67 300/ 11/ 12 1014.8 BEAUFORT LAB 0100 63 68 300/ 4/ 5 1014.3 30 SE NEW RIVER 0100 68 75 300/ 10/ 14 1014.8 2/10 2/10 5 SE WRIGHTSVLE 0100 63 72 270/ 8/ 10 N/A 225 S CAPE HAT 0029 72 77 350/ 8/ 10 1014.4 4/ 9 5/ 9 41 SE CHARLESTON 0100 69 78 330/ 6/ 8 1015.2 3/11 3/11 $$

USA.gov is the U.S. government's official web portal to all federal, state and local government web resources and services.